C/2004 U1 - A (LINEAR)

Epoch 2004 Dec. 21.0 TT = JDT 2453360.5  

T 2004 Dec. 8.75774 TT                                  Nakano

q   2.6593763            (2000.0)            P               Q

z  +0.0003138      Peri.   20.12791     -0.15308715     +0.69654093

 +/-0.0000017      Node   112.54626     +0.77053194     -0.36001149

e   0.9991656      Incl.  130.62332     +0.61874458     +0.62066292

From 533 observations 2004 Oct. 16-2005 Oct. 21, mean residual 0".58.

   (1/a)org.= +0.000620, (1/a)fut.= +0.000949 (+/-0.000002), Q= 8.

Residuals in seconds of arc 

2004/                     041211 A01  0.3-  0.0     050110 138  0.5+  0.9-  

041016 699  0.7-  1.1-    041211 A01  0.3-  0.0     050110 138  0.1+  0.6-  

041016 699  0.2+  0.3-    041211 360  0.0   0.2+    050110 240  0.2+  0.1-  

041016 699  0.2-  1.3-    041211 360  0.1-  0.1+    050110 240  0.1+  0.1-  

041016 699  1.3+  1.4-    041211 D70  0.4-  0.9+    050110 240  0.4+  0.0   

041019 704  0.7+  0.1+    041211 D70  0.2-  0.6+    050110 240  0.1+  0.0   

041019 704  1.3+  1.1-    041211 D70  0.4-  0.6+    050110 240  0.2-  0.0   

041019 704  1.7+  1.1+    041211 349  0.2-  0.5+    050111 D88  0.6+  0.4-  

041020 113  0.8-  0.7-    041211 349  0.0   0.4+    050111 D88  0.3-  0.4-  

041020 113  0.4-  0.5-    041211 349  0.2-  0.3+    050111 D88  0.2-  1.1-  

041020 113  0.4-  0.3-    041211 349  0.2-  0.3+    050111 379  0.4-  0.3+  

041020 113  0.2-  0.3-    041211 130  0.1-  0.8+    050111 379  0.3-  0.3+  

041020 854  0.1+  1.9-    041211 130  0.0   0.8+    050111 379  0.4-  0.6-  

041020 854  0.3-  0.9-    041211 130  0.2+  0.5+    050111 379  0.8-  0.4-  

041020 854  0.4+  0.9-    041211 130  0.9+  0.1+    050113 379  0.5-  0.2-  

041021 J95  0.1-  1.3-    041212 H41  0.1+  0.1-    050113 379  0.3-  0.3+  

041021 J95  0.4+  0.7-    041212 H41  0.0   0.2-    050115 A46  0.2-  0.1-  

041021 J95  1.0-  0.8-    041212 H41  0.0   0.2-    050115 A46  0.1-  0.1-  

041021 J95  1.5+  0.7-    041212 H41  0.1+  0.2-    050115 A46  0.1-  0.3-  

041021 J95  0.6+  1.1-    041212 H41  0.1-  0.2-    050115 A46  0.1-  0.2-  

041021 704  0.7+  0.5-    041213 945  0.9-  0.9+    050115 A46  0.5-  0.4-  

041021 704  0.6-  0.1+    041213 945  1.0-  1.0+    050115 A46  0.6-  0.3-  

041021 704  0.9+  0.3-    041213 945  0.9-  1.0+    050116 704  1.7+  1.0-  

041021 704  0.1-  0.7-    041213 945  1.0-  0.9+    050116 704 (3.9+  2.3-) 

041021 704  0.0   0.2-    041213 945  1.0-  1.0+    050116 704 (3.1+  1.8-) 

041021 704  1.8+  0.3-    041213 379  0.3-  0.1-    050116 704 (2.4+  3.1-) 

041021 704  0.1+  0.3+    041213 379  0.2+  0.3+    050116 704 (4.7+  2.7-) 

041021 704  0.0   0.3-    041213 379  0.6+  0.5-    050116 379  0.3+  0.5-  

041021 D74  0.8+  0.5+    041213 213  0.2+  0.2-    050116 379  0.3+  0.2+  

041021 D74  0.5+  1.2-    041213 213  0.1+  0.2+    050116 379  0.2-  0.0   

041021 D74  0.3+  0.2-    041213 213  0.1+  0.1+    050116 379  0.0   0.2+  

041021 D74  0.6+  0.3-    041215 A39  0.1-  0.1+    050116 048 (2.0+  0.5+) 

041022 349  0.6+  1.1-    041215 A39  0.2-  0.6+    050117 945  0.1-  0.1-  

041022 349  1.2+  0.1+    041215 A39  0.0   0.2+    050117 945  0.5+  0.0   

041022 349  0.3+  0.1+    041215 A39  0.2-  0.2+    050117 945  0.6-  0.0   

041023 170  0.7+  0.9-    041215 379  0.1-  0.3+    050117 945  0.2-  0.1+  

041023 170  0.7+  0.4-    041215 379  0.0   0.4+    050117 704  1.5+  1.2-  

041023 170  0.6+  0.5-    041215 379  0.1-  0.4+    050117 704 (2.0+  1.6-) 

041023 170  1.1+  0.6-    041215 379  0.2+  0.4+    050117 704  1.2+  1.0-  

041023 360  0.5+  0.8-    041215 213  0.1+  0.4+    050117 704 (2.6+  2.0-) 

041023 360  0.2+  0.3-    041215 213  0.0   0.3+    050117 704 (2.0+  2.5-) 

041023 360  0.7+  0.6-    041215 213  0.2+  0.3+    050117 379  0.5-  0.1+  

041024 704  0.9+  0.5-    041216 240  0.3-  0.3+    050117 379  0.5+  1.1-  

041024 704  0.3-  0.6-    041216 240  0.4-  0.2+    050117 213  0.8+  0.0   

041024 704  0.2+  0.2-    041216 240  0.4-  0.2+    050117 213  1.4+  0.0   

041024 704  0.5+  0.4-    041216 240  0.4-  0.2+    050117 213  0.5-  0.0   

041024 704  0.2-  0.6-    041216 240  0.5-  0.2+    050118 379  0.6-  0.1-  

041106 213  0.5-  0.8+    041216 240  0.4-  0.2+    050118 379  0.4+  0.3+  

041106 213  1.0-  0.5+    041216 240  0.4-  0.2+    050118 213  0.1-  0.3+  

041109 204  1.0+  0.4-    041216 240  0.4-  0.3+    050118 213  0.4+  0.8-  

041109 204  0.1+  0.1-    041216 240  0.3-  0.2+    050118 213  0.3+  0.0   

041112 360  0.4+  0.4-    041216 349  0.1-  0.1-    050119 213  0.2+  0.4+  

041112 360  0.3+  0.2-    041216 349  0.2-  0.4+    050122 J78  0.6+  0.1-  

041116 349  0.6+  0.3-    041216 349  0.4-  0.0     050122 J78  0.5+  0.0   

041116 349  0.2+  0.1-    041216 349  0.2-  0.4+    050122 J78  1.0-  0.0   

041116 349  0.1-  0.4-    041216 360  0.1-  0.3+    050122 213  0.5+  0.2+  

041120 J76 (0.4+  2.1+)   041216 360  0.0   0.4+    050122 213  0.1+  0.2+  

041120 J76  0.2+  0.6+    041217 H41  0.2-  0.1+    050122 213  0.1+  0.6+  

041120 J76  0.2-  0.2-    041217 H41  0.2-  0.2+    050122 939  0.4+  0.3-  

041120 D70  0.5-  1.5+    041217 H41  0.2-  0.2+    050122 939  0.2+  0.2-  

041120 D70  0.4-  0.3+    041217 H41  0.2-  0.3+    050122 939  0.4+  0.1-  

041120 D70  0.8+  0.7+    041217 H41  0.1-  0.2+    050125 213 (2.5+  1.7+) 

041121 130  0.2+  0.2-    041217 H41  0.2-  0.2+    050125 213  1.7+  0.9+  

041121 130  0.9+  0.6-    041217 379  0.7-  0.1-    050125 213  0.1+  0.5+  

041121 130  0.2+  0.3+    041217 379  0.1-  0.1+    050128 J78  0.9-  0.3+  

041121 130  0.5+  0.1-    041217 379  0.3-  0.5+    050128 J78  0.7-  0.7+  

041121 A32 (0.9+  3.1-)   041217 379  0.2-  0.3+    050128 J78  0.3+  0.0   

041121 A32 (0.8+  2.3-)   041217 J78  0.4-  0.1-    050129 213  0.5+  0.9-  

041121 A32  1.3+  1.9-    041217 J78  1.1-  0.2-    050129 213  0.1-  0.5+  

041121 A32 (1.2+  2.6-)   041217 J78  0.1+  0.7+    050129 213  0.8+  0.3+  

041122 704  0.3+  0.1+    041218 213  0.7-  0.2+    050129 939  0.8+  0.0   

041122 704  0.4+  0.3+    041218 213  0.1-  0.1-    050129 939  0.6+  0.2-  

041122 704  0.6+  0.1+    041218 213  0.4-  0.1-    050129 939  0.8+  0.6-  

041122 704  0.1+  1.0-    041218 939  0.8-  0.0     050130 561  0.1+  0.0   

041122 704  0.1+  0.1-    041218 939  0.3-  0.2-    050130 561  1.1+  0.2+  

041122 349  0.1+  0.2-    041219 939  0.3-  0.1-    050130 561  1.2-  0.2-  

041122 349  0.1+  0.2-    041219 A41  1.1-  0.3-    050131 372  0.3-  0.8-  

041122 349  0.1+  0.4-    041219 A41  0.8-  0.2-    050202 372  0.1-  0.6+  

041122 A31 (0.2-  2.4-)   041219 A41 (0.7-  2.1-)   050203 D88  0.3+  0.4-  

041122 A31 (2.7-  0.6+)   041219 213  0.5+  0.2+    050203 D88  0.8+  0.3+  

041126 118  0.7+  0.1-    041219 213  0.2-  0.6+    050203 D88  1.3+  0.5-  

041126 118  0.6+  0.1-    041219 213  0.2-  0.4+    050204 379  0.4-  0.7-  

041126 118  0.9+  0.0     041220 H47  1.4+  0.9-    050204 379  0.4+  0.2-  

041126 118  0.9+  0.1-    041220 H47 (3.5+  1.3-)   050204 213 (2.4+  0.0 ) 

041126 118  0.9+  0.1-    041220 H47  0.2-  0.8-    050204 213 (2.2+  0.5+) 

041128 213  0.5+  0.2+    041220 H47  1.3+  0.9+    050204 213  1.9+  0.9+  

041128 213  0.4+  0.2+    041220 H47  0.1+  0.7-    050205 A01  0.9+  0.1-  

041128 213  0.4+  0.4+    041220 H47  0.4-  1.3-    050205 A01  1.0+  0.1+  

041201 704  0.0   1.1+    041220 704  0.2-  0.9-    050205 A01  0.8+  0.7+  

041201 704  0.5-  0.6+    041220 704  0.1+  1.7-    050206 360  0.2-  0.0   

041201 704  0.3-  0.6+    041220 704  0.2-  1.8-    050206 360  0.2-  0.1+  

041201 704  0.2-  0.7+    041220 H41  0.4-  0.4+    050206 D83 (1.6+  2.7+) 

041201 704  0.2-  0.3+    041220 704  0.2+  1.8-    050206 D83 (2.3+  0.5-) 

041202 349  0.1-  0.0     041220 H41  0.1+  0.3+    050206 D83 (2.8+  0.8-) 

041202 349  0.1-  0.2+    041220 H41  0.2-  0.4+    050206 D83  0.6+  0.7+  

041202 349  0.1-  0.2+    041220 H41  0.2-  0.1+    050206 118  0.1+  0.0   

041202 349  0.1-  0.0     041220 H41  0.4-  0.1-    050206 118  0.1-  0.0   

041203 850  0.9+  0.1+    041220 704 (0.2-  2.0-)   050206 118  0.1+  0.1+  

041203 850  0.2-  0.3+    041220 379  0.5+  0.1+    050206 118  0.4+  0.1+  

041203 850  0.3+  0.6-    041220 379  0.2+  0.3+    050206 A46  0.7+  0.1+  

041203 850  0.3-  0.1+    041220 A46  1.2-  0.8+    050206 A46  0.6+  0.1+  

041203 349  0.3+  0.3+    041220 A46  0.9-  0.8+    050206 A46  0.4+  0.3+  

041203 349  0.2+  0.3+    041220 A46  1.3-  1.1+    050206 A46  0.7+  0.2+  

041203 D83  0.9+  0.1+    041220 A46  1.2-  1.2+    050206 A46  0.1+  0.2-  

041203 D83  0.6+  0.1-    041220 A46  0.7-  0.6+    050206 A46  0.4+  0.2-  

041203 D83  0.2+  0.1-    041220 A46  0.9-  0.8+    050208 379  0.9+  0.4-  

041203 D83  0.4+  0.6-    041220 A30  0.4-  0.5+    050208 379  0.0   1.1-  

041203 349  0.1+  0.2+    041220 A30  0.3-  0.4+    050208 595  1.1+  0.1-  

041203 349  0.2+  0.1+    041220 A30  0.2-  0.4+    050208 595  1.0+  0.3+  

041204 A46  0.4-  0.1-    041220 A30  0.3-  0.5+    050209 132  0.2-  0.0   

041204 A46  0.1+  0.1-    041220 048 (3.9+  1.9-)   050209 132  0.4-  0.4-  

041204 A46  0.0   0.0     041220 048 (4.1+  1.3-)   050209 132  0.2-  0.2-  

041204 A46  0.1-  0.0     041220 048 (3.4+  1.9-)   050211 349  0.6+  0.3+  

041204 A46  0.2+  0.1+    041220 048 (3.7+  1.2-)   050211 349  0.8+  0.8+  

041204 A46  0.1+  0.1-    041220 048 (4.1+  1.8-)   050212 J78  1.0+  0.2+  

041205 349  0.1+  0.1+    041221 H41  0.1-  0.6+    050213 349  1.4+  0.4+  

041205 349  0.1+  0.1-    041221 H41  0.2-  0.5+    050213 349  1.6+  0.3+  

041205 349  0.1-  0.0     041221 H41  0.3-  0.6+    050213 349  1.3+  0.3+  

041205 349  0.2-  0.1+    041221 H41  0.0   0.5+    050213 D88  0.6+  0.6-  

041205 A32  0.0   0.3+    041221 A46  0.3-  0.5+    050213 D88  1.2+  1.5-  

